This is the latest recevied weather packets stored in our database for station/object KO4DYK. If no packets are shown the sender has not sent any weather packets the latest 10 day(s).
| Time | Temp. | Humidity | Pressure | Rain* | Wind** | Luminosity | Snow |
|---|---|---|---|---|---|---|---|
| 1788220538 | 31.67° C | 67% | 1018.2 hPa | 0 mm | - | 18 W/m² | - |
| 1788220217 | 31.67° C | 69% | 1018.2 hPa | 0 mm | - | 20 W/m² | - |
| 1788219911 | 31.67° C | 68% | 1018.1 hPa | 0 mm | - | 24 W/m² | - |
| 1788219607 | 32.22° C | 67% | 1018.1 hPa | 0 mm | - | 26 W/m² | - |
| 1788219301 | 32.22° C | 68% | 1018.2 hPa | 0 mm | - | 29 W/m² | - |
| 1788218997 | 32.78° C | 67% | 1018.2 hPa | 0 mm | - | 31 W/m² | - |
| 1788218692 | 32.78° C | 65% | 1018.2 hPa | 0 mm | - | 33 W/m² | - |
| 1788218388 | 32.78° C | 65% | 1018.2 hPa | 0 mm | - | 35 W/m² | - |
| 1788218084 | 33.33° C | 66% | 1018.4 hPa | 0 mm | - | 37 W/m² | - |
| 1788217780 | 33.33° C | 62% | 1018.2 hPa | 0 mm | - | 39 W/m² | - |
| 1788217475 | 33.33° C | 62% | 1018.2 hPa | 0 mm | - | 41 W/m² | - |
| 1788217174 | 33.33° C | 62% | 1018.4 hPa | 0 mm | - | 43 W/m² | - |
| 1788216871 | 33.33° C | 64% | 1018.3 hPa | 0 mm | - | 44 W/m² | - |
| 1788216565 | 33.89° C | 64% | 1018.2 hPa | 0 mm | - | 44 W/m² | - |
| 1788216265 | 33.89° C | 61% | 1018.2 hPa | 0 mm | - | 48 W/m² | - |
| 1788215960 | 34.44° C | 58% | 1018.3 hPa | 0 mm | - | 51 W/m² | - |
| 1788215656 | 34.44° C | 56% | 1018.3 hPa | 0 mm | - | 67 W/m² | - |
| 1788215352 | 34.44° C | 55% | 1018.4 hPa | 0 mm | - | 67 W/m² | - |
| 1788215067 | 33.89° C | 57% | 1018.4 hPa | 0 mm | - | 114 W/m² | - |
| 1788214743 | 33.89° C | 59% | 1018.6 hPa | 0 mm | - | 80 W/m² | - |
| 1788214438 | 33.89° C | 60% | 1018.5 hPa | 0 mm | - | 71 W/m² | - |
| 1788214134 | 33.33° C | 66% | 1018.6 hPa | 0 mm | - | 252 W/m² | - |
| 1788213829 | 34.44° C | 67% | 1018.5 hPa | 0 mm | - | 65 W/m² | - |
| 1788213524 | 34.44° C | 57% | 1018.5 hPa | 0 mm | - | 58 W/m² | - |
| 1788213221 | 35° C | 58% | 1018.5 hPa | 0 mm | - | 69 W/m² | - |
* Rain latest hour (hover to see other rain measurements)
** Current wind speed in m/s (hover to see current wind gust speed)